Location: Boiro
(42.6475°N, 8.8834°W)
Time: 23:37:00
(UTC+01:00)

A-11 Canister half - Pass Details

Date: 04 December 2021
Orbit: 1516 x 1684 km, 47.2° (Epoch: 18 January)

Event Time Altitude Azimuth Distance (km) Brightness Sun altitude
Rises 12:19:38 0° 284° (WNW) 4,845 11.3 23.3°
Reaches altitude 10° 12:22:45 10° 287° (WNW) 3,879 10.9 23.4°
Maximum altitude 12:32:45 73° 12° (NNE) 1,734 9.5 23.9°
Drops below altitude 10° 12:42:57 10° 97° (E) 3,946 11.5 24.3°
Sets 12:46:09 0° 100° (E) 4,933 11.9 24.4°
